FENGYUN 1C DEB, 35199

Orbit data source: Space-Track

FENGYUN 1C DEB, 35199 is space debris in SSO originally from a launch on Mon, 10 May 1999 UTC launched from the Taiyaun Space Center, China (TSC). Fengyun 1C debris stems from the Chinese weather satellite Fengyun-1C, which was intentionally destroyed by a Chinese anti-satellite missile in 2007. This event dramatically increased the amount of space debris, with thousands of trackable fragments posing hazards to satellites and human spaceflight. The Fengyun 1C debris cloud has become a focal point in discussions about space sustainability and the need for international regulations to prevent the creation of new debris.

Loading next visibility...
Identifier
35199, 1999-025DPF
Orbit
SSO
Country
Flag of CNCN / PRC
Related business
Manufacturer
Unknown
Mission
Spacecraft
Bus & Motor
Unknown
Mass
Unknown
Launch date (UTC)
1999-05-10 (27 years ago)
Launch vehicle
Unknown
Launch site
Taiyaun Space Center, China (TSC)
Object type
Payload
Rocket body
Debris
Shape & HBR
Unknown shape, 1.1 m
Radar Cross Section
Small (<0.1 m²)

Expand to show TLE details & history
Last TLE update: 3 days ago

TLE from 3 days ago
0 FENGYUN 1C DEB
1 35199U 99025DPF 26102.17893584  .00001970  00000-0  13260-2 0  9999
2 35199  98.4382 246.6814 0115871 231.4337 127.6402 13.98470401938683
Epoch: 2026-04-12T04:17Z
TLE epoch observation values (Epoch: 2026-04-12T04:17:40.056Z)
Latitude
-0.00005°
Longitude
-18.1231°
Altitude
954.102 km
Speed
7.348 km/s
True Right ascension
16h 26m 43s
True Declination
0° 00' 00"
Sunlit
Object was in full shadow at epoch
Visualization orbit readout
Latitude
Unknown
Longitude
Unknown
Altitude
Unknown
Speed
Unknown
Apparent Right ascension
Unknown
Apparent Declination
Unknown
Sunlit
N/A
Visualization observer readout
Local Sidereal Time
12:16:35
Azimuth
Unknown
Elevation
Unknown
Doppler factor
Unknown
Orbital elements
Apogee altitude
980.56 km
Perigee altitude
811.982 km
Semi-major axis
7,274.408 km
Eccentricity
0.01159
Inclination
98.4382°
RAAN
246.6814°
Arg. of periapsis
231.4337°
True anomaly
128.68234°
Mean anomaly
127.6402°
Eccentric anomaly
128.16219°
Mean motion
3.49822 °/min
Orbital period
102.91 mins
BSTAR
0.001326
Loading maneuver chart data...
Computing Atmospheric mass density...

Documentation

Showing up to 5 results
|